Вернуться в каталог

STARLINK-35609

АктивенСвязьVLEO
NORAD 66100·PAYLOAD·🇺🇸 United States

Запущен Oct 19, 2025 с Vandenberg Space Force Base

Loading…

Ближайшие Пролёты (ближайшие 24 часа)

TLE

СвежийSource: CelesTrak SupGP

Эпоха: Sep 14, 2026, 22:48 UTC

1 66100C 25236Q   26257.95048611  .00045801  00000+0  13538-2 0  2573
2 66100  53.1582 301.5822 0001120  81.8109  13.5836 15.34353130    16

Отслеживайте STARLINK-35609 в реальном времени с AllMySat

Download on the App Store